Weather in Aeroport

Russia / Volgograd Oblast     48°47′46″N   44°21′14″E
temp.,
°C
wind,
m/s
gust,
m/s
humid.,
%
clouds,
%
prec.,
mm/h
press.,
hPa
HPBL,
m
25 february, thu
thu2500:00−15wnw1269100 0.0 1040171
03:00−15sw237097 0.0 1039218
06:00−14sw2571100 0.0 1038269
09:00−12ssw466699 0.0 1036392
12:00−9ssw5757100 0.0 1034524
15:00−7sw61056100 0.0 1031586
18:00−8sw61182100 0.1 1029568
21:00−7sw81485100 0.2 1026455
26 february, fri
fri2600:00−6wsw81594100 0.4 1023403
03:00−4w71494100 0.7 1021405
06:00−2w61297100 0.4 1019327
09:000w61197100 0.7 1019299
12:00+1w61098100 0.2 1019345
15:00+3w61198100 0.2 1018290
18:00+2wsw71298100 0.1 1018301
21:00+2wsw7139799 0.1 1017346
27 february, sat
sat2700:00+3w8159696 0.0 1015486
03:00+3w8159598 0.1 1014466
06:00+2wsw71496100 0.3 1012444
09:00+2w71396100 0.3 1011498
12:00+4w71288100 0.0 1010787
15:00+3w61285100 0.0 1009725
18:00+2w61292100 0.1 1009545
21:00+2w51191100 0.1 1010387
28 february, sun
sun2800:00+1w5109498 0.1 1010468
03:00+1w6118991 0.1 1010378
06:000w599396 0.0 1010404
09:00+1wnw588893 0.0 1011531
12:00+2nw578697 0.1 1012573
15:00+1nnw567496 0.2 1013690
18:00−2nnw477661 0.0 1015428
21:00−4nnw577736 0.0 1017605
1 march, mon
mon100:00−5nnw577495 0.0 1019626
03:00−6nnw577396 0.0 1021615
06:00−7nnw587347 0.0 1022585
09:00−6nnw577039 0.0 1024651
12:00−3nnw5660100 0.0 1025775
15:00−3nnw575894 0.0 1026864
18:00−4nnw57656 0.0 1027754
21:00−5nnw47683 0.0 1029667